This is the latest recevied weather packets stored in our database for station/object KB4RFE. If no packets are shown the sender has not sent any weather packets the latest 10 day(s).
| Time | Temp. | Humidity | Pressure | Rain* | Wind** | Luminosity | Snow |
|---|---|---|---|---|---|---|---|
| 1788448820 | 33.33° C | 69% | 1021.1 hPa | 0 mm | - | 714 W/m² | - |
| 1788448519 | 32.78° C | 72% | 1021 hPa | 0 mm | - | 663 W/m² | - |
| 1788448215 | 32.22° C | 72% | 1021.3 hPa | 0 mm | - | 706 W/m² | - |
| 1788447915 | 31.67° C | 72% | 1021 hPa | 0 mm | - | 675 W/m² | - |
| 1788447610 | 32.22° C | 70% | 1021 hPa | 0 mm | - | 676 W/m² | - |
| 1788447304 | 31.67° C | 73% | 1021.1 hPa | 0 mm | - | 695 W/m² | - |
| 1788447000 | 31.11° C | 75% | 1021.2 hPa | 0 mm | - | 612 W/m² | - |
| 1788446699 | 31.67° C | 75% | 1021 hPa | 0 mm | - | 183 W/m² | - |
| 1788446395 | 31.67° C | 74% | 1020.9 hPa | 0 mm | - | 208 W/m² | - |
| 1788446091 | 31.67° C | 75% | 1020.9 hPa | 0 mm | - | 454 W/m² | - |
| 1788445786 | 31.11° C | 74% | 1020.9 hPa | 0 mm | - | 508 W/m² | - |
| 1788445482 | 30.56° C | 77% | 1021.1 hPa | 0 mm | - | 555 W/m² | - |
| 1788445178 | 30.56° C | 76% | 1020.9 hPa | 0 mm | - | 521 W/m² | - |
| 1788444873 | 31.11° C | 76% | 1020.7 hPa | 0 mm | - | 539 W/m² | - |
| 1788444569 | 31.11° C | 77% | 1020.7 hPa | 0 mm | - | 467 W/m² | - |
| 1788444264 | 30.56° C | 80% | 1020.6 hPa | 0 mm | - | 500 W/m² | - |
| 1788443959 | 30.56° C | 78% | 1020.9 hPa | 0 mm | - | 395 W/m² | - |
| 1788443655 | 30.56° C | 81% | 1020.7 hPa | 0 mm | - | 374 W/m² | - |
| 1788443355 | 30° C | 81% | 1021 hPa | 0 mm | - | 256 W/m² | - |
| 1788443054 | 30° C | 82% | 1020.8 hPa | 0 mm | - | 146 W/m² | - |
| 1788442752 | 29.44° C | 83% | 1020.6 hPa | 0 mm | - | 384 W/m² | - |
| 1788442448 | 29.44° C | 85% | 1020.7 hPa | 0 mm | - | 354 W/m² | - |
| 1788442143 | 28.89° C | 88% | 1020.7 hPa | 0 mm | - | 285 W/m² | - |
| 1788441839 | 28.33° C | 88% | 1020.7 hPa | 0 mm | - | 317 W/m² | - |
| 1788441539 | 27.78° C | 88% | 1020.7 hPa | 0 mm | - | 195 W/m² | - |
* Rain latest hour (hover to see other rain measurements)
** Current wind speed in m/s (hover to see current wind gust speed)